Weather in derevnya Nadvoitsy

Russia / Republic of Karelia     63°52′29″N   34°19′27″E
temp.,
°C
wind,
m/s
gust,
m/s
humid.,
%
clouds,
%
prec.,
mm/h
press.,
hPa
HPBL,
m
1 march, mon
mon100:00−2wsw499382 0.0 1011234
03:00+1w6139682 0.0 1010701
06:00+2w61495100 0.1 1007645
09:00+2w61493100 0.1 1006654
12:00+2w51394100 0.0 1004675
15:00+1w51199100 0.8 1003534
18:00+1w6138994 0.1 1001784
21:00+1wnw6148397 0.1 10001122
2 march, tue
tue200:00−2wnw6158323 0.0 1000581
03:00−2wnw6158227 0.0 1000676
06:00−3wnw5148535 0.0 1000676
09:00−3nw6128868 0.1 1003936
12:00−4nw7127848 0.0 1004899
15:00−3nnw7127874 0.1 10081135
18:00−6nw4128377 0.0 1009441
21:00−7wnw4118738 0.0 1010308
3 march, wed
wed300:00−6wnw499131 0.0 1009292
03:00−6w4109335 0.0 1009267
06:00−5nw5129296 0.2 1007532
09:00−6wnw4109398 0.3 1008426
12:00−4wnw479091 0.0 1006403
15:00−3w378991 0.0 1005469
18:00−5wsw239397 0.0 100123
21:00−5w119599 0.0 99821
4 march, thu
thu400:00−6nne3597100 0.1 996138
03:00−9n359799 0.1 99693
06:00−9n379695 0.0 997243
09:00−9nnw489398 0.1 998312
12:00−6nnw488998 0.1 999583
15:00−6nnw588899 0.2 1000704
18:00−8nnw3795100 0.1 1001281
21:00−9nne2595100 0.4 1003235
5 march, fri
fri500:00−13nnw229584 0.0 100421
03:00−14nw239379 0.0 100543
06:00−12nnw2596100 0.1 1006187
09:00−12nne249499 0.3 1008284
12:00−11n248796 0.1 1010575
15:00−10n358398 0.2 1012818
18:00−12nnw229398 0.1 101325
21:00−14wnw239492 0.1 101437